Time,TemperatureF,DewpointF,PressureIn,WindDirection,WindDirectionDegrees,WindSpeedMPH,WindSpeedGustMPH,Humidity,HourlyPrecipIn,Conditions,Clouds,dailyrainin,SoftwareType,DateUTC
2013-04-06 00:14:00,72.9,67.5,-100.00,NE,45,146.0,-999.0,83,0.00,,,0.00,meteohub,2013-04-06 10:14:00,
2013-04-06 00:19:00,72.9,67.5,-100.00,NE,45,146.0,-999.0,83,0.00,,,0.00,meteohub,2013-04-06 10:19:00,
2013-04-06 00:24:00,72.9,67.5,-100.00,NE,45,146.0,146.0,83,0.00,,,0.00,meteohub,2013-04-06 10:24:00,
2013-04-06 00:30:00,72.5,67.1,-100.00,SW,225,0.0,146.0,83,0.00,,,0.00,meteohub,2013-04-06 10:30:00,
2013-04-06 00:35:00,72.5,67.1,-100.00,SW,225,0.0,146.0,83,0.00,,,0.00,meteohub,2013-04-06 10:35:00,
2013-04-06 00:44:00,72.3,67.8,-100.00,SW,225,0.0,0.0,86,0.00,,,0.00,meteohub,2013-04-06 10:44:00,
2013-04-06 00:49:00,72.3,67.8,-100.00,SW,225,0.0,0.0,86,0.00,,,0.00,meteohub,2013-04-06 10:49:00,
2013-04-06 00:54:00,72.1,67.6,-100.00,SW,225,2.0,0.0,86,0.00,,,0.00,meteohub,2013-04-06 10:54:00,
2013-04-06 01:00:00,72.1,67.6,-100.00,SW,225,2.0,2.0,86,0.00,,,0.00,meteohub,2013-04-06 11:00:00,
2013-04-06 01:05:00,72.0,67.8,-100.00,SW,225,0.0,2.0,87,0.00,,,0.00,meteohub,2013-04-06 11:05:00,
2013-04-06 01:10:00,72.0,67.8,-100.00,SW,225,0.0,2.0,87,0.00,,,0.00,meteohub,2013-04-06 11:10:00,
2013-04-06 01:35:00,71.6,67.1,-100.00,NE,45,2.0,-999.0,86,0.00,,,0.00,meteohub,2013-04-06 11:35:00,
2013-04-06 01:36:00,71.6,67.1,-100.00,NE,45,1.0,-999.0,86,0.00,,,0.00,meteohub,2013-04-06 11:36:00,
2013-04-06 01:42:00,71.6,67.1,-100.00,NE,45,1.0,2.0,86,0.00,,,0.00,meteohub,2013-04-06 11:42:00,
2013-04-06 01:47:00,71.6,67.1,-100.00,NE,45,1.0,2.0,86,0.00,,,0.00,meteohub,2013-04-06 11:47:00,
2013-04-06 02:04:00,71.8,67.3,-100.00,East,90,0.0,-999.0,86,0.00,,,0.00,meteohub,2013-04-06 12:04:00,
2013-04-06 02:09:00,71.8,67.3,-100.00,East,90,0.0,-999.0,86,0.00,,,0.00,meteohub,2013-04-06 12:09:00,
2013-04-06 02:14:00,71.8,67.3,-100.00,SW,225,0.0,0.0,86,0.00,,,0.00,meteohub,2013-04-06 12:14:00,
2013-04-06 02:20:00,71.8,67.3,-100.00,SW,225,0.0,0.0,86,0.00,,,0.00,meteohub,2013-04-06 12:20:00,
2013-04-06 02:34:00,72.5,67.5,-100.00,SW,225,2.0,0.0,84,0.00,,,0.00,meteohub,2013-04-06 12:34:00,
2013-04-06 02:39:00,72.5,67.5,-100.00,SW,225,2.0,-999.0,84,0.00,,,0.00,meteohub,2013-04-06 12:39:00,
2013-04-06 02:44:00,72.5,67.5,-100.00,SW,225,2.0,2.0,84,0.00,,,0.00,meteohub,2013-04-06 12:44:00,
2013-04-06 04:34:00,70.5,64.8,-100.00,SW,225,0.0,-999.0,82,-99.99,,,0.00,meteohub,2013-04-06 14:34:00,
2013-04-06 04:39:00,70.5,64.8,-100.00,SW,225,0.0,-999.0,82,0.00,,,0.00,meteohub,2013-04-06 14:39:00,
2013-04-06 04:45:00,70.5,64.8,-100.00,SW,225,0.0,0.0,82,0.00,,,0.00,meteohub,2013-04-06 14:45:00,
2013-04-06 04:50:00,70.3,64.6,-100.00,SW,225,1.0,0.0,82,0.00,,,0.00,meteohub,2013-04-06 14:50:00,
2013-04-06 04:55:00,70.3,64.6,-100.00,SW,225,1.0,0.0,82,0.00,,,0.00,meteohub,2013-04-06 14:55:00,
2013-04-06 05:00:00,70.3,64.6,-100.00,SW,225,1.0,1.0,82,0.00,,,0.00,meteohub,2013-04-06 15:00:00,
2013-04-06 05:08:00,66.6,61.0,-100.00,SW,225,1.0,1.0,82,0.00,,,0.00,meteohub,2013-04-06 15:08:00,
2013-04-06 05:13:00,69.4,64.0,-100.00,SW,225,0.0,1.0,83,0.00,,,0.00,meteohub,2013-04-06 15:13:00,
2013-04-06 05:18:00,69.4,64.0,-100.00,SW,225,0.0,1.0,83,0.00,,,0.00,meteohub,2013-04-06 15:18:00,
2013-04-06 05:23:00,57.7,57.7,-100.00,SW,225,0.0,1.0,0,0.00,,,0.00,meteohub,2013-04-06 15:23:00,
2013-04-06 05:29:00,57.7,57.7,-100.00,SW,225,0.0,0.0,0,0.00,,,0.00,meteohub,2013-04-06 15:29:00,
2013-04-06 05:34:00,68.9,64.2,-100.00,SW,225,1.0,0.0,85,0.00,,,0.00,meteohub,2013-04-06 15:34:00,
2013-04-06 05:40:00,69.1,64.4,-100.00,SW,225,0.0,1.0,85,0.76,,,0.76,meteohub,2013-04-06 15:40:00,
2013-04-06 05:45:00,69.1,64.4,-100.00,SW,225,0.0,1.0,85,0.76,,,0.76,meteohub,2013-04-06 15:45:00,
2013-04-06 05:50:00,69.1,64.4,-100.00,SW,225,0.0,1.0,85,0.76,,,0.76,meteohub,2013-04-06 15:50:00,
2013-04-06 05:55:00,69.1,64.4,-100.00,SW,225,1.0,1.0,85,0.76,,,0.76,meteohub,2013-04-06 15:55:00,
2013-04-06 06:00:00,69.1,64.4,-100.00,SW,225,1.0,1.0,85,0.76,,,0.76,meteohub,2013-04-06 16:00:00,
2013-04-06 06:33:00,70.3,66.0,-100.00,SW,225,1.0,-999.0,86,0.76,,,0.76,meteohub,2013-04-06 16:33:00,
2013-04-06 06:38:00,70.3,66.0,-100.00,SW,225,1.0,-999.0,86,0.00,,,0.76,meteohub,2013-04-06 16:38:00,
2013-04-06 06:43:00,70.3,66.0,-100.00,SW,225,1.0,1.0,86,0.00,,,0.76,meteohub,2013-04-06 16:43:00,
2013-04-06 06:59:00,70.7,66.4,-100.00,SW,225,0.0,-999.0,86,0.00,,,0.76,meteohub,2013-04-06 16:59:00,
2013-04-06 07:04:00,70.7,66.4,-100.00,SW,225,0.0,-999.0,86,0.00,,,0.76,meteohub,2013-04-06 17:04:00,
2013-04-06 07:10:00,70.7,66.4,-100.00,SW,225,0.0,0.0,86,0.00,,,0.76,meteohub,2013-04-06 17:10:00,
2013-04-06 07:19:00,71.4,67.6,-100.00,SW,225,0.0,0.0,88,0.00,,,0.76,meteohub,2013-04-06 17:19:00,
2013-04-06 07:24:00,71.6,67.8,-100.00,SW,225,0.0,0.0,88,0.00,,,0.76,meteohub,2013-04-06 17:24:00,
2013-04-06 07:30:00,71.6,67.8,-100.00,SW,225,0.0,0.0,88,0.00,,,0.76,meteohub,2013-04-06 17:30:00,
2013-04-06 07:35:00,71.6,67.8,-100.00,SW,225,0.0,0.0,88,0.00,,,0.76,meteohub,2013-04-06 17:35:00,
2013-04-06 08:03:00,73.6,68.7,-100.00,North,0,2.0,-999.0,85,0.00,,,0.76,meteohub,2013-04-06 18:03:00,
2013-04-06 08:09:00,73.6,68.7,-100.00,North,0,2.0,-999.0,85,0.00,,,0.76,meteohub,2013-04-06 18:09:00,
2013-04-06 08:15:00,73.6,68.7,-100.00,North,0,2.0,2.0,85,0.00,,,0.76,meteohub,2013-04-06 18:15:00,
2013-04-06 08:59:00,76.5,70.9,-100.00,North,0,2.0,-999.0,83,0.00,,,0.76,meteohub,2013-04-06 18:59:00,
2013-04-06 09:04:00,76.5,70.9,-100.00,North,0,2.0,-999.0,83,0.00,,,0.76,meteohub,2013-04-06 19:04:00,
2013-04-06 09:09:00,76.6,70.7,-100.00,NE,45,4.0,4.0,82,0.00,,,0.76,meteohub,2013-04-06 19:09:00,
2013-04-06 09:14:00,76.6,70.7,-100.00,NE,45,4.0,4.0,82,0.00,,,0.76,meteohub,2013-04-06 19:14:00,
2013-04-06 09:26:00,77.7,71.1,-100.00,NE,45,2.0,4.0,80,0.00,,,0.76,meteohub,2013-04-06 19:26:00,
2013-04-06 09:32:00,77.7,71.1,-100.00,NE,45,2.0,2.0,80,0.00,,,0.76,meteohub,2013-04-06 19:32:00,
2013-04-06 09:37:00,77.7,71.1,-100.00,NE,45,2.0,2.0,80,0.00,,,0.76,meteohub,2013-04-06 19:37:00,
2013-04-06 09:42:00,78.6,70.9,-100.00,NE,45,2.0,2.0,77,0.00,,,0.76,meteohub,2013-04-06 19:42:00,
2013-04-06 09:48:00,78.6,70.9,-100.00,NE,45,2.0,2.0,77,0.00,,,0.76,meteohub,2013-04-06 19:48:00,
2013-04-06 09:53:00,78.6,70.9,-100.00,NE,45,2.0,2.0,77,0.00,,,0.76,meteohub,2013-04-06 19:53:00,
2013-04-06 09:58:00,79.5,70.5,-100.00,NE,45,2.0,2.0,74,0.00,,,0.76,meteohub,2013-04-06 19:58:00,
2013-04-06 10:04:00,79.5,70.5,-100.00,NE,45,2.0,2.0,74,0.00,,,0.76,meteohub,2013-04-06 20:04:00,
2013-04-06 10:21:00,80.1,69.8,-100.00,North,0,3.0,-999.0,71,0.00,,,0.76,meteohub,2013-04-06 20:21:00,
2013-04-06 10:26:00,80.1,69.8,-100.00,North,0,2.0,3.0,71,0.00,,,0.76,meteohub,2013-04-06 20:26:00,
2013-04-06 10:32:00,80.1,69.8,-100.00,NE,45,4.0,7.0,71,0.00,,,0.76,meteohub,2013-04-06 20:32:00,
2013-04-06 10:37:00,80.4,70.2,-100.00,NE,45,4.0,7.0,71,0.00,,,0.76,meteohub,2013-04-06 20:37:00,
2013-04-06 10:42:00,80.1,69.8,-100.00,North,0,4.0,7.0,71,0.00,,,0.76,meteohub,2013-04-06 20:42:00,
2013-04-06 10:47:00,79.7,69.4,-100.00,North,0,3.0,7.0,71,0.00,,,0.76,meteohub,2013-04-06 20:47:00,
2013-04-06 10:52:00,79.7,69.8,-100.00,North,0,2.0,5.0,72,0.00,,,0.76,meteohub,2013-04-06 20:52:00,
2013-04-06 10:57:00,80.1,70.7,-100.00,NW,315,2.0,5.0,73,0.00,,,0.76,meteohub,2013-04-06 20:57:00,
2013-04-06 11:02:00,80.4,70.5,-100.00,NE,45,4.0,4.0,72,0.00,,,0.76,meteohub,2013-04-06 21:02:00,
2013-04-06 11:07:00,80.6,70.3,-100.00,NE,45,4.0,4.0,71,0.00,,,0.76,meteohub,2013-04-06 21:07:00,
2013-04-06 11:12:00,80.6,70.0,-100.00,North,0,6.0,7.0,70,0.00,,,0.76,meteohub,2013-04-06 21:12:00,
2013-04-06 11:17:00,81.1,70.0,-100.00,NE,45,5.0,7.0,69,0.00,,,0.76,meteohub,2013-04-06 21:17:00,
2013-04-06 11:22:00,81.9,70.3,-100.00,NE,45,5.0,7.0,68,0.00,,,0.76,meteohub,2013-04-06 21:22:00,
2013-04-06 11:28:00,82.8,70.2,-100.00,NE,45,6.0,6.0,66,0.00,,,0.76,meteohub,2013-04-06 21:28:00,
2013-04-06 11:33:00,83.1,70.5,-100.00,NE,45,4.0,8.0,66,0.00,,,0.76,meteohub,2013-04-06 21:33:00,
2013-04-06 11:38:00,83.5,70.9,-100.00,NE,45,4.0,8.0,66,0.00,,,0.76,meteohub,2013-04-06 21:38:00,
2013-04-06 11:43:00,84.2,71.6,-100.00,North,0,6.0,8.0,66,0.00,,,0.76,meteohub,2013-04-06 21:43:00,
2013-04-06 11:49:00,84.0,72.0,-100.00,North,0,4.0,8.0,67,0.00,,,0.76,meteohub,2013-04-06 21:49:00,
2013-04-06 11:54:00,84.2,72.0,-100.00,East,90,4.0,8.0,67,0.00,,,0.76,meteohub,2013-04-06 21:54:00,
2013-04-06 11:59:00,84.0,72.0,-100.00,NE,45,7.0,8.0,67,0.00,,,0.76,meteohub,2013-04-06 21:59:00,
2013-04-06 12:04:00,84.2,72.0,-100.00,North,0,7.0,9.0,67,0.00,,,0.76,meteohub,2013-04-06 22:04:00,
2013-04-06 12:09:00,83.7,71.6,-100.00,NE,45,7.0,9.0,67,0.00,,,0.76,meteohub,2013-04-06 22:09:00,
2013-04-06 12:15:00,84.0,72.3,-100.00,North,0,7.0,9.0,68,0.00,,,0.76,meteohub,2013-04-06 22:15:00,
2013-04-06 12:20:00,84.6,72.9,-100.00,North,0,4.0,9.0,68,0.00,,,0.76,meteohub,2013-04-06 22:20:00,
2013-04-06 12:25:00,84.6,72.3,-100.00,NE,45,3.0,9.0,67,0.00,,,0.76,meteohub,2013-04-06 22:25:00,
2013-04-06 12:31:00,84.9,72.7,-100.00,NE,45,4.0,9.0,67,0.00,,,0.76,meteohub,2013-04-06 22:31:00,
2013-04-06 12:36:00,85.6,72.1,-100.00,East,90,5.0,6.0,64,0.00,,,0.76,meteohub,2013-04-06 22:36:00,
2013-04-06 12:41:00,86.5,72.5,-100.00,NE,45,6.0,8.0,63,0.00,,,0.76,meteohub,2013-04-06 22:41:00,
2013-04-06 12:46:00,87.1,72.5,-100.00,East,90,7.0,9.0,62,0.00,,,0.76,meteohub,2013-04-06 22:46:00,
2013-04-06 12:52:00,87.1,72.0,-100.00,NE,45,4.0,9.0,61,0.00,,,0.76,meteohub,2013-04-06 22:52:00,
2013-04-06 12:57:00,86.5,71.4,-100.00,NNE,23,6.0,10.0,61,0.00,,,0.76,meteohub,2013-04-06 22:57:00,
2013-04-06 13:02:00,86.2,71.6,-100.00,East,90,6.0,11.0,62,0.00,,,0.76,meteohub,2013-04-06 23:02:00,
2013-04-06 13:07:00,86.5,72.9,-100.00,NW,315,7.0,11.0,64,0.00,,,0.76,meteohub,2013-04-06 23:07:00,
2013-04-06 13:12:00,87.1,73.4,-100.00,NE,45,5.0,13.0,64,0.00,,,0.76,meteohub,2013-04-06 23:12:00,
2013-04-06 13:17:00,87.1,72.5,-100.00,North,0,7.0,13.0,62,0.00,,,0.76,meteohub,2013-04-06 23:17:00,
2013-04-06 13:22:00,87.1,72.5,-100.00,East,90,7.0,13.0,62,0.00,,,0.76,meteohub,2013-04-06 23:22:00,
2013-04-06 13:27:00,87.3,72.7,-100.00,NNE,23,7.0,9.0,62,0.00,,,0.76,meteohub,2013-04-06 23:27:00,
2013-04-06 13:32:00,87.4,72.3,-100.00,North,0,8.0,8.0,61,0.00,,,0.76,meteohub,2013-04-06 23:32:00,
2013-04-06 13:38:00,87.3,71.6,-100.00,NE,45,6.0,8.0,60,0.00,,,0.76,meteohub,2013-04-06 23:38:00,
2013-04-06 13:43:00,88.2,72.5,-100.00,North,0,5.0,8.0,60,0.00,,,0.76,meteohub,2013-04-06 23:43:00,
2013-04-06 13:48:00,88.3,71.6,-100.00,North,0,6.0,8.0,58,0.00,,,0.76,meteohub,2013-04-06 23:48:00,
2013-04-06 13:53:00,88.3,71.6,-100.00,North,0,6.0,8.0,58,0.00,,,0.76,meteohub,2013-04-06 23:53:00,
2013-04-06 15:17:00,91.0,73.2,-100.00,NE,45,4.0,-999.0,56,-99.99,,,0.76,meteohub,2013-04-07 01:17:00,
2013-04-06 15:22:00,90.7,72.9,-100.00,NNE,23,4.0,4.0,56,0.00,,,0.00,meteohub,2013-04-07 01:22:00,
2013-04-06 15:27:00,90.7,72.9,-100.00,NNE,23,4.0,4.0,56,0.00,,,0.00,meteohub,2013-04-07 01:27:00,
2013-04-06 15:32:00,90.7,72.9,-100.00,NNE,23,4.0,4.0,56,0.00,,,0.00,meteohub,2013-04-07 01:32:00,
2013-04-06 15:37:00,90.5,72.7,-100.00,North,0,5.0,5.0,56,0.00,,,0.00,meteohub,2013-04-07 01:37:00,
2013-04-06 15:42:00,90.5,72.7,-100.00,North,0,5.0,5.0,56,0.00,,,0.00,meteohub,2013-04-07 01:42:00,
2013-04-06 15:49:00,89.6,74.3,-100.00,NE,45,5.0,5.0,61,0.00,,,0.00,meteohub,2013-04-07 01:49:00,
2013-04-06 15:55:00,89.6,74.3,-100.00,NE,45,5.0,5.0,61,0.00,,,0.00,meteohub,2013-04-07 01:55:00,
2013-04-06 16:00:00,89.4,73.8,-100.00,North,0,5.0,5.0,60,0.00,,,0.00,meteohub,2013-04-07 02:00:00,
2013-04-06 16:05:00,89.4,73.8,-100.00,North,0,5.0,5.0,60,0.00,,,0.00,meteohub,2013-04-07 02:05:00,
2013-04-06 16:12:00,89.2,73.9,-100.00,NE,45,3.0,5.0,61,0.00,,,0.00,meteohub,2013-04-07 02:12:00,
2013-04-06 16:17:00,89.2,73.9,-100.00,NE,45,3.0,5.0,61,0.00,,,0.00,meteohub,2013-04-07 02:17:00,
2013-04-06 16:23:00,89.2,73.9,-100.00,NE,45,3.0,3.0,61,0.00,,,0.00,meteohub,2013-04-07 02:23:00,
2013-04-06 17:04:00,88.3,72.7,-100.00,SW,225,4.0,-999.0,60,0.00,,,0.00,meteohub,2013-04-07 03:04:00,
2013-04-06 17:09:00,88.3,72.7,-100.00,SW,225,4.0,-999.0,60,0.00,,,0.00,meteohub,2013-04-07 03:09:00,
2013-04-06 17:15:00,88.3,72.7,-100.00,SW,225,4.0,4.0,60,0.00,,,0.00,meteohub,2013-04-07 03:15:00,
2013-04-06 17:20:00,87.8,73.2,-100.00,West,270,2.0,4.0,62,0.00,,,0.00,meteohub,2013-04-07 03:20:00,
2013-04-06 17:25:00,87.8,73.2,-100.00,West,270,2.0,4.0,62,0.00,,,0.00,meteohub,2013-04-07 03:25:00,
2013-04-06 17:31:00,87.8,73.2,-100.00,West,270,2.0,2.0,62,0.00,,,0.00,meteohub,2013-04-07 03:31:00,
2013-04-06 17:48:00,87.1,72.5,-100.00,South,180,1.0,2.0,62,0.00,,,0.00,meteohub,2013-04-07 03:48:00,
2013-04-06 17:54:00,86.7,72.7,-100.00,South,180,3.0,3.0,63,0.00,,,0.00,meteohub,2013-04-07 03:54:00,
2013-04-06 17:59:00,86.7,72.7,-100.00,South,180,3.0,3.0,63,0.00,,,0.00,meteohub,2013-04-07 03:59:00,
2013-04-06 18:00:00,86.7,72.7,-100.00,South,180,3.0,3.0,63,0.00,,,0.00,meteohub,2013-04-07 04:00:00,
2013-04-06 18:01:00,86.7,72.7,-100.00,South,180,3.0,3.0,63,0.00,,,0.00,meteohub,2013-04-07 04:01:00,
2013-04-06 18:02:00,86.7,72.7,-100.00,South,180,3.0,3.0,63,0.00,,,0.00,meteohub,2013-04-07 04:02:00,
2013-04-06 18:14:00,84.7,71.6,-100.00,South,180,2.0,3.0,65,0.00,,,0.00,meteohub,2013-04-07 04:14:00,
2013-04-06 18:19:00,84.7,71.6,-100.00,South,180,2.0,3.0,65,0.00,,,0.00,meteohub,2013-04-07 04:19:00,
2013-04-06 18:25:00,82.8,71.1,30.11,SW,225,2.0,2.0,68,0.00,,,0.00,meteohub,2013-04-07 04:25:00,
2013-04-06 18:30:00,82.0,70.9,-100.00,NNE,23,2.0,5.0,69,0.00,,,0.00,meteohub,2013-04-07 04:30:00,
2013-04-06 18:35:00,81.3,70.5,-100.00,East,90,2.0,5.0,70,0.00,,,0.00,meteohub,2013-04-07 04:35:00,
2013-04-06 18:40:00,80.8,70.9,-100.00,SW,225,2.0,5.0,72,0.00,,,0.00,meteohub,2013-04-07 04:40:00,
2013-04-06 18:45:00,80.2,70.9,-100.00,East,90,2.0,2.0,73,0.00,,,0.00,meteohub,2013-04-07 04:45:00,
2013-04-06 18:50:00,79.5,70.2,-100.00,East,90,1.0,2.0,73,0.00,,,0.00,meteohub,2013-04-07 04:50:00,
2013-04-06 18:55:00,79.2,69.8,-100.00,NE,45,2.0,2.0,73,0.00,,,0.00,meteohub,2013-04-07 04:55:00,
2013-04-06 19:00:00,79.0,70.0,-100.00,North,0,2.0,3.0,74,0.00,,,0.00,meteohub,2013-04-07 05:00:00,
2013-04-06 19:05:00,78.6,69.6,-100.00,NW,315,2.0,3.0,74,0.00,,,0.00,meteohub,2013-04-07 05:05:00,
2013-04-06 19:11:00,78.4,69.8,-100.00,NE,45,2.0,3.0,75,0.00,,,0.00,meteohub,2013-04-07 05:11:00,
2013-04-06 19:16:00,78.3,69.3,-100.00,NE,45,2.0,3.0,74,0.00,,,0.00,meteohub,2013-04-07 05:16:00,
2013-04-06 19:21:00,77.9,68.9,-100.00,NW,315,1.0,2.0,74,0.00,,,0.00,meteohub,2013-04-07 05:21:00,
2013-04-06 19:26:00,77.9,69.3,-100.00,West,270,1.0,2.0,75,0.00,,,0.00,meteohub,2013-04-07 05:26:00,
2013-04-06 19:31:00,77.7,69.1,-100.00,NE,45,2.0,2.0,75,0.00,,,0.00,meteohub,2013-04-07 05:31:00,
2013-04-06 19:37:00,77.7,69.6,-100.00,East,90,1.0,2.0,76,0.00,,,0.00,meteohub,2013-04-07 05:37:00,
2013-04-06 19:42:00,77.5,69.4,-100.00,North,0,2.0,2.0,76,0.00,,,0.00,meteohub,2013-04-07 05:42:00,
2013-04-06 19:47:00,77.5,69.8,-100.00,North,0,2.0,2.0,77,0.00,,,0.00,meteohub,2013-04-07 05:47:00,
2013-04-06 19:52:00,77.5,70.2,-100.00,NE,45,0.0,2.0,78,0.00,,,0.00,meteohub,2013-04-07 05:52:00,
2013-04-06 19:58:00,77.5,70.5,-100.00,NE,45,0.0,2.0,79,0.00,,,0.00,meteohub,2013-04-07 05:58:00,
2013-04-06 20:03:00,77.4,70.0,-100.00,NE,45,0.0,2.0,78,0.00,,,0.00,meteohub,2013-04-07 06:03:00,
2013-04-06 20:08:00,77.4,69.6,-100.00,SW,225,0.0,2.0,77,0.00,,,0.00,meteohub,2013-04-07 06:08:00,
2013-04-06 20:13:00,77.2,69.4,-100.00,SW,225,0.0,1.0,77,0.00,,,0.00,meteohub,2013-04-07 06:13:00,
2013-04-06 20:18:00,77.2,69.4,-100.00,SW,225,0.0,0.0,77,0.00,,,0.00,meteohub,2013-04-07 06:18:00,
2013-04-06 20:23:00,77.2,69.4,-100.00,SW,225,0.0,0.0,77,0.00,,,0.00,meteohub,2013-04-07 06:23:00,
2013-04-06 20:28:00,77.2,69.4,-100.00,SW,225,0.0,0.0,77,0.00,,,0.00,meteohub,2013-04-07 06:28:00,
2013-04-06 20:33:00,77.0,69.3,-100.00,East,90,1.0,0.0,77,0.00,,,0.00,meteohub,2013-04-07 06:33:00,
2013-04-06 20:39:00,77.0,69.3,-100.00,SE,135,1.0,1.0,77,0.00,,,0.00,meteohub,2013-04-07 06:39:00,
2013-04-06 20:44:00,76.8,69.1,-100.00,SW,225,2.0,2.0,77,0.00,,,0.00,meteohub,2013-04-07 06:44:00,
2013-04-06 20:50:00,76.8,69.1,-100.00,SW,225,1.0,2.0,77,0.00,,,0.00,meteohub,2013-04-07 06:50:00,
2013-04-06 20:55:00,76.6,68.9,-100.00,SW,225,1.0,2.0,77,0.00,,,0.00,meteohub,2013-04-07 06:55:00,
2013-04-06 21:00:00,76.5,68.7,-100.00,North,0,0.0,2.0,77,0.00,,,0.00,meteohub,2013-04-07 07:00:00,
2013-04-06 21:06:00,76.3,68.9,-100.00,North,0,0.0,1.0,78,0.00,,,0.00,meteohub,2013-04-07 07:06:00,
2013-04-06 21:11:00,75.9,68.5,-100.00,North,0,0.0,1.0,78,0.00,,,0.00,meteohub,2013-04-07 07:11:00,
2013-04-06 21:16:00,75.7,68.4,-100.00,North,0,0.0,0.0,78,0.00,,,0.00,meteohub,2013-04-07 07:16:00,
2013-04-06 21:22:00,75.6,68.5,-100.00,North,0,0.0,0.0,79,0.00,,,0.00,meteohub,2013-04-07 07:22:00,
2013-04-06 21:27:00,75.4,68.4,-100.00,North,0,0.0,0.0,79,0.00,,,0.00,meteohub,2013-04-07 07:27:00,
2013-04-06 21:32:00,75.4,68.4,-100.00,North,0,0.0,0.0,79,0.00,,,0.00,meteohub,2013-04-07 07:32:00,
2013-04-06 21:40:00,74.7,68.4,-100.00,North,0,1.0,0.0,81,0.00,,,0.00,meteohub,2013-04-07 07:40:00,
2013-04-06 21:45:00,74.7,68.4,-100.00,North,0,1.0,1.0,81,0.00,,,0.00,meteohub,2013-04-07 07:45:00,
2013-04-06 21:50:00,74.7,68.4,-100.00,North,0,1.0,1.0,81,0.00,,,0.00,meteohub,2013-04-07 07:50:00,
2013-04-06 21:59:00,74.5,68.2,-100.00,SW,225,0.0,1.0,81,0.00,,,0.00,meteohub,2013-04-07 07:59:00,
2013-04-06 22:04:00,74.5,68.2,-100.00,SW,225,1.0,1.0,81,0.00,,,0.00,meteohub,2013-04-07 08:04:00,
2013-04-06 22:09:00,74.3,68.0,-100.00,SW,225,0.0,1.0,81,0.00,,,0.00,meteohub,2013-04-07 08:09:00,
2013-04-06 22:14:00,74.3,68.0,-100.00,SW,225,0.0,1.0,81,0.00,,,0.00,meteohub,2013-04-07 08:14:00,
2013-04-06 22:20:00,73.8,67.6,-100.00,SW,225,0.0,1.0,81,0.00,,,0.00,meteohub,2013-04-07 08:20:00,
2013-04-06 22:25:00,73.6,67.5,-100.00,SW,225,0.0,0.0,81,0.00,,,0.00,meteohub,2013-04-07 08:25:00,
2013-04-06 22:30:00,73.4,67.6,-100.00,SW,225,0.0,1.0,82,0.00,,,0.00,meteohub,2013-04-07 08:30:00,
2013-04-06 22:35:00,73.4,67.6,-100.00,SW,225,0.0,1.0,82,0.00,,,0.00,meteohub,2013-04-07 08:35:00,
2013-04-06 22:41:00,73.2,67.5,-100.00,SW,225,1.0,2.0,82,0.00,,,0.00,meteohub,2013-04-07 08:41:00,
2013-04-06 22:46:00,73.0,67.3,-100.00,SW,225,1.0,2.0,82,0.00,,,0.00,meteohub,2013-04-07 08:46:00,
2013-04-06 22:51:00,72.9,67.1,-100.00,SW,225,1.0,2.0,82,0.00,,,0.00,meteohub,2013-04-07 08:51:00,
2013-04-06 22:56:00,72.9,67.1,-100.00,SW,225,1.0,2.0,82,0.00,,,0.00,meteohub,2013-04-07 08:56:00,
2013-04-06 23:01:00,72.5,66.7,-100.00,SW,225,1.0,1.0,82,0.00,,,0.00,meteohub,2013-04-07 09:01:00,
2013-04-06 23:07:00,72.3,66.9,-100.00,SW,225,0.0,1.0,83,0.00,,,0.00,meteohub,2013-04-07 09:07:00,
2013-04-06 23:12:00,72.3,66.9,-100.00,SW,225,0.0,1.0,83,0.00,,,0.00,meteohub,2013-04-07 09:12:00,
2013-04-06 23:17:00,72.3,66.9,-100.00,SW,225,0.0,1.0,83,0.00,,,0.00,meteohub,2013-04-07 09:17:00,
2013-04-06 23:22:00,72.1,66.7,-100.00,SW,225,0.0,1.0,83,0.00,,,0.00,meteohub,2013-04-07 09:22:00,
2013-04-06 23:27:00,72.3,67.3,-100.00,SW,225,2.0,2.0,84,0.00,,,0.00,meteohub,2013-04-07 09:27:00,
2013-04-06 23:33:00,72.5,67.5,-100.00,SW,225,2.0,2.0,84,0.00,,,0.00,meteohub,2013-04-07 09:33:00,
2013-04-06 23:38:00,72.5,67.1,-100.00,SW,225,1.0,2.0,83,0.00,,,0.00,meteohub,2013-04-07 09:38:00,
2013-04-06 23:43:00,72.3,66.9,-100.00,SW,225,1.0,2.0,83,0.00,,,0.00,meteohub,2013-04-07 09:43:00,
2013-04-06 23:48:00,72.3,67.3,-100.00,SW,225,1.0,2.0,84,0.00,,,0.00,meteohub,2013-04-07 09:48:00,
2013-04-06 23:53:00,72.3,66.9,-100.00,SW,225,1.0,2.0,83,0.00,,,0.00,meteohub,2013-04-07 09:53:00,
2013-04-06 23:58:00,72.0,66.6,-100.00,SW,225,0.0,1.0,83,0.00,,,0.00,meteohub,2013-04-07 09:58:00,